Location: Budapest
(47.4979°N, 19.0402°E)
Time: 14:02:17
(UTC+02:00)

OTV 5 (USA 277) - Pass Details

Date: 13 October 2017
Orbit: 404 x 417 km, 43.0° (Epoch: 07 September)

Event Time Altitude Azimuth Distance (km) Brightness Sun altitude
Rises 18:36:59 0° 228° (SW) 2,347 ? -7.1°
Reaches altitude 10° 18:39:23 10° 213° (SSW) 1,487 ? -7.5°
Maximum altitude 18:42:03 22° 160° (SSE) 965 ? -7.9°
Enters shadow 18:44:43 10° 107° (ESE) 1,487 ? -8.4°
